Regional Weather Roundup
Issued by NWS

Home | Current Version | Previous Version | Graphics & Text | Print | Product List | Glossary On
Versions: 1 2 3 4 5 6 7 8 9 10 11 12 13 14 15 16 17 18 19 20 21 22 23 24 25 26 27 28 29 30 31 32 33 34 35 36 37 38 39 40 41 42 43 44 45 46 47 48 49 50
000
ASUS43 KLSX 200307
RWRMO

WEATHER SUMMARY FOR MISSOURI
NATIONAL WEATHER SERVICE SPRINGFIELD MO
1000 PM CDT FRI SEP 19 2014

NOTE: "FAIR" INDICATES FEW OR NO CLOUDS BELOW 12,000 FEET WITH NO
       SIGNIFICANT WEATHER AND/OR OBSTRUCTIONS TO VISIBILITY.
       CURRENT SKY AND/OR WEATHER CONDITIONS ARE NOT AVAILABLE FOR
       CHILLICOTHE AND FARMINGTON.

MOZ001>031-035>038-043-044-053-054-200400-
...NORTHERN AND WESTERN MISSOURI...

CITY           SKY/WX    TMP DP  RH WIND       PRES   REMARKS
KANSAS CTY INT PTCLDY    71  67  87 S12       29.95R
KANSAS C DTWN  CLEAR     73  68  84 S7        29.95R
LEE`S SUMMIT   CLEAR     71  67  87 S6        29.97R
ST JOSEPH      CLEAR     69  67  93 S8        29.93R
CHILLICOTHE      N/A     70  65  84 S7        29.95S
KIRKSVILLE     CLEAR     68  61  78 S8        29.97S

$$
MOZ066>068-077>081-088>096-101>105-200400-
...SOUTHWEST MISSOURI...

CITY           SKY/WX    TMP DP  RH WIND       PRES   REMARKS
SPRINGFIELD    CLEAR     67  62  84 SE7       30.01S
JOPLIN         PTCLDY    68  68 100 E5        30.00S

$$
MOZ032>034-039>042-045>050-055>058-069>072-200400-
...CENTRAL MISSOURI...

CITY           SKY/WX    TMP DP  RH WIND       PRES   REMARKS
COLUMBIA       CLEAR     65  61  87 S7        30.00S
JEFFERSON CITY CLEAR     64  61  90 SE5       29.99S
ROLLA          CLEAR     65  60  84 SE8       30.01S HAZE
SEDALIA        CLEAR     67  63  87 S8        29.99S
WHITEMAN AFB   CLEAR     69  64  86 S9        29.96F
OSAGE BEACH    CLEAR     64  61  88 SE5       30.01S

$$
MOZ051-052-059>065-200400-
...EAST CENTRAL MISSOURI...

CITY           SKY/WX    TMP DP  RH WIND       PRES   REMARKS
ST LOUIS INTL  PTCLDY    72  58  61 SE8       30.02
SPIRIT OF STL  CLEAR     62  59  90 CALM      30.00S
ST CHARLES     CLEAR     61  59  93 E5        30.00S

$$
MOZ072>076-082>087-097>100-106>115-200400-
...SOUTH CENTRAL AND SOUTHEAST MISSOURI...

CITY           SKY/WX    TMP DP  RH WIND       PRES   REMARKS
CAPE GIRARDEAU CLEAR     60  58  92 CALM      30.03R
FARMINGTON     CLEAR     61  59  94 CALM      30.06S
POPLAR BLUFF   CLEAR     64  60  87 CALM      30.02R
WEST PLAINS    CLEAR     64  62  93 CALM      30.06R

$$



USA.gov is the U.S. government's official web portal to all federal, state and local government web resources and services.